Weather History for Annapolis Naval Academy, MD

Change the Weather History Date:

Tuesday, October 22, 2013

  Actual Average (KBWI) Record (KBWI)
Temperature  
Mean Temperature 58 °F 54 °F  
Max Temperature 64 °F 65 °F 85 °F (1979)
Min Temperature 52 °F 43 °F 31 °F (1952)
Degree Days  
Heating Degree Days 8 11  
Month to date heating degree days 181  
Since 1 July heating degree days 234  
Cooling Degree Days 0 0  
Month to date cooling degree days 15  
Year to date cooling degree days 1160  
Growing Degree Days 8 (Base 50)    
Moisture  
Dew Point 48 °F    
Average Humidity 69    
Maximum Humidity 83    
Minimum Humidity 58    
Precipitation  
Precipitation 0.00 in 0.11 in 2.04 in (1956)
Month to date precipitation 2.38  
Year to date precipitation 34.26  
Snow  
Snow 0.00 in 0.00 in - ()
Month to date snowfall 0.0  
Since 1 July snowfall 0.0  
Snow Depth -    
Sea Level Pressure  
Sea Level Pressure 29.87 in    
Wind  
Wind Speed 5 mph (WNW)    
Max Wind Speed 9 mph    
Max Gust Speed -    
Visibility 10 miles    
Events      
T = Trace of Precipitation, MM = Missing Value Source: NWS Daily Summary

Daily Weather History Graph

Daily Weather History Graph

Search for Another Location

Airport:

Trip Planner

Search our weather history database for the weather conditions in past years. The results will help you decide how hot, cold, wet, or windy it might be!

Date:

Astronomy

Oct. 22, 2013 Rise Set
Actual Time 7:22 AM EDT 6:17 PM EDT
Civil Twilight 6:55 AM EDT 6:44 PM EDT
Nautical Twilight 6:24 AM EDT 7:15 PM EDT
Astronomical Twilight 5:53 AM EDT 7:46 PM EDT
Moon 8:57 PM EDT (10/22) 10:47 AM EDT (10/22)
Length of Visible Light 11h 48m
Length of Day
10h 54m
Waning Gibbous, 87% of the Moon is Illuminated
Oct 22
Waning Gibbous
Oct 26
Last Quarter
Nov 3
New
Nov 10
First Quarter
Nov 17
Full

Hourly Weather History & Observations

Time (EDT) Temp. Dew Point Humidity Pressure Visibility Wind Dir Wind Speed Gust Speed Precip Events Conditions
12:54 AM 57.9 °F 50.0 °F 75% 29.97 in 10.0 mi South 5.8 mph - N/A   Clear
1:54 AM 57.0 °F 50.0 °F 77% 29.95 in 10.0 mi South 5.8 mph - N/A   Clear
2:54 AM 57.9 °F 48.0 °F 70% 29.94 in 10.0 mi SSW 4.6 mph - N/A   Clear
3:54 AM 55.9 °F 48.0 °F 75% 29.91 in 10.0 mi South 4.6 mph - N/A   Clear
4:54 AM 54.0 °F 46.9 °F 77% 29.90 in 10.0 mi South 4.6 mph - N/A   Clear
5:54 AM 53.1 °F 46.0 °F 77% 29.89 in 10.0 mi South 3.5 mph - N/A   Clear
6:54 AM 53.1 °F 46.9 °F 80% 29.87 in 10.0 mi South 3.5 mph - N/A   Clear
7:54 AM 52.0 °F 46.9 °F 83% 29.87 in 10.0 mi Calm Calm - N/A   Clear
8:54 AM 55.0 °F 48.0 °F 77% 29.87 in 5.0 mi Variable 3.5 mph - N/A   Haze
9:54 AM 59.0 °F 48.9 °F 69% 29.88 in 9.0 mi Calm Calm - N/A   Clear
10:54 AM 63.0 °F 50.0 °F 63% 29.87 in 10.0 mi Calm Calm - N/A   Clear
11:54 AM 63.0 °F 50.0 °F 63% 29.86 in 10.0 mi West 5.8 mph - N/A   Mostly Cloudy
12:54 PM 63.0 °F 51.1 °F 65% 29.86 in 10.0 mi NNW 4.6 mph - N/A   Overcast
1:54 PM 63.0 °F 50.0 °F 63% 29.84 in 10.0 mi NW 8.1 mph - N/A   Mostly Cloudy
2:54 PM 63.0 °F 48.9 °F 60% 29.84 in 10.0 mi NW 6.9 mph - N/A   Overcast
3:54 PM 62.1 °F 48.9 °F 62% 29.83 in 10.0 mi NW 4.6 mph - N/A   Scattered Clouds
4:54 PM 63.0 °F 48.0 °F 58% 29.84 in 10.0 mi NW 9.2 mph - N/A   Mostly Cloudy
5:54 PM 61.0 °F 48.9 °F 64% 29.83 in 10.0 mi WNW 4.6 mph - N/A   Clear
6:54 PM 60.1 °F 50.0 °F 69% 29.84 in 10.0 mi NW 5.8 mph - N/A   Clear
7:54 PM 59.0 °F 48.9 °F 69% 29.85 in 10.0 mi NW 9.2 mph - N/A   Clear
8:54 PM 57.9 °F 46.9 °F 67% 29.85 in 10.0 mi North 5.8 mph - N/A   Clear
9:54 PM 55.0 °F 46.9 °F 74% 29.86 in 10.0 mi Calm Calm - N/A   Mostly Cloudy
10:54 PM 57.0 °F 43.0 °F 59% 29.86 in 10.0 mi NNW 8.1 mph - N/A   Mostly Cloudy
11:54 PM 55.9 °F 42.1 °F 60% 29.84 in 10.0 mi North 5.8 mph - 0.00 in   Overcast